Other Surface Observations
Issued by NWS

Home | Current Version | Previous Version | Text Only | Print | Product List | Glossary On
Versions: 1 2 3 4 5 6 7 8 9 10 11 12 13 14 15 16 17 18 19 20 21 22 23 24 25 26 27 28 29 30 31 32 33 34 35 36 37 38 39 40 41 42 43 44 45 46 47 48 49 50
437
SXUS52 KTAE 220506
OSOTAE
OSOTAE
North Florida/South Alabama/Southwest Georgia Weather Roundup
National Weather Service Tallahassee Florida
1200 AM EST SUN JAN 22 2017

Note: "fair" indicates few or no clouds below 12,000 feet with no
significant weather and/or obstructions to visibility.

!FLZ017-115-028-034-025-220600
...North Florida...

CITY           SKY/WX    TMP DP  RH WIND       PRES   REMARKS
TALLAHASSEE    CLOUDY    72  71  97 S12       29.66F
APALACHICOLA   CLOUDY    73  72  96 SW13      29.67S
PERRY          CLOUDY    73  68  83 S10       29.72S
CROSS CITY     CLOUDY    70  66  88 S10G18    29.74F
JACKSONVILLE   MOCLDY    63  63 100 S5        29.75F
$$

!FLZ112-006-005-002-011-220600
...Florida Panhandle...

CITY           SKY/WX    TMP DP  RH WIND       PRES   REMARKS
MARIANNA       CLOUDY    72  71  97 S14       29.61F
BONIFAY        NOT AVBL
PANAMA CITY NW CLOUDY    73  70  90 S17G26    29.62F
TYNDALL AFB    RAIN      72  70  94 S15G21    29.64F
TYND DRONE APT LGT RAIN  70  70 100 S14G21    29.64F
DE FUNIAK SPR  TSTM      72  71  97 S17G30    29.59F
EGLIN AFB      TSTM      72  71  96 S18G26    29.58F
DESTIN         TSTM      75  74  96 S14G26    29.59F
HURLBURT       CLOUDY    72  64  78 S20       29.58S
CRESTVIEW      TSTM      73  70  90 S16G28    29.58S FOG
PENSACOLA      CLOUDY    73  70  90 S20G28    29.57F
$$

!ALZ063-066-220600
...South Alabama...

CITY           SKY/WX    TMP DP  RH WIND       PRES   REMARKS
DOTHAN         HVY RAIN  62  62 100 E7        29.65F FOG
OZARK CAIRNS   LGT RAIN  63  63 100 NE3       29.59F
FT RUCKER HELI CLOUDY    63  61  93 E3        29.57F
RUCKER HELI 3  NOT AVBL
RUCKER HELI 2  RAIN      63  62  97 CALM        N/A  FOG
FLORALA APT    LGT RAIN  65  63  93 NE5       29.58F FOG
ANDALUSIA      TSTM      64  61  90 SE5       29.58F FOG
TROY           TSTM      61  61 100 SE8       29.59F
EUFALA         LGT RAIN  62  60  93 E6        29.61F
MOBILE         LGT RAIN  73  69  87 S22G40    29.55S
$$

!GAZ120>161-220600
...Southwest and South Central Georgia...

CITY           SKY/WX    TMP DP  RH WIND       PRES   REMARKS
THOMASVILLE    CLOUDY    64  64 100 S5        29.68F
BAINBRIDGE     CLOUDY    68  68 100 S10       29.63F
MOODY AFB      LGT RAIN  66  64  94 SE7       29.68F
VALDOSTA       LGT RAIN  66  65  96 S10       29.70F
MOULTRIE       CLOUDY    64  63  94 S6        29.67F
BLAKELY        TSTM      64  63  94 N9G17     29.64R
ALBANY         TSTM      63  62  97 S10       29.63F
TIFTON         CLOUDY    62  62 100 SE7       29.69R THUNDER
FITZGERALD     TSTM      63  63 100 NW3       29.71S
CORDELE        RAIN      63  62  97 SE5       29.70R
AMERICUS       TSTM      61  61 100 NE9       29.65F
HOMERVILLE     TSTM      64  64 100 S3        29.72F
$$

!GMZ750-755-770-775-220600
...Coastal and Buoy Obs...

STATION/POSITION TIME  TEMP    WIND        PRES    VSBY  WAVE
                       AIR SEA DIR/SP/G                  HT/PER
                 (UTC) (F)     (DEG/KT/KT) (MB)    (MI)  (FT/S)
KEATON BEACH     0500   69     160/ 20/ 22 1006.2F
CEDAR KEY        0400   69     180/ 17/ 20 1007.9F
C TOWER          0500   72     210/ 21/ 22 1005.4R
APALACHICOLA BUO 0350   76 73  190/ 19/ 23 1005.8          6/ 7
PANAMA CITY BUOY 0350   77 75              1004.0          8/ 7
MOBILE BUOY      NOT AVBL
ORANGE BCH AL BU 0350   70 66  180/ 16/ 21 1001.4          6/ 8
$$




USA.gov is the U.S. government's official web portal to all federal, state and local government web resources and services.